#timestamp,LO_Frequency,Hit,Temp,Hum 
1479877215.0,286047109.7,N,0.0,0.0
1479877215.9,286047109.7,N,0.0,0.0
1479877235.8,286047110.0,N,0.0,0.0
1479877255.6,286047107.4,N,0.0,0.0
1479877275.4,286047109.8,N,0.0,0.0
1479877295.3,286047109.4,N,0.0,0.0
1479877315.1,286047107.1,N,0.0,0.0
1479877335.9,286047108.3,N,0.0,0.0
1479877355.7,286047105.4,N,0.0,0.0
1479877375.5,286047108.3,N,0.0,0.0
1479877395.4,286047105.3,N,0.0,0.0
1479877415.2,286047105.7,N,0.0,0.0
1479877435.0,286047106.2,N,0.0,0.0
1479877436.0,286047106.2,N,0.0,0.0
1479877455.8,286047106.4,N,0.0,0.0
1479877475.6,286047106.4,N,0.0,0.0
1479877495.5,286047106.8,N,0.0,0.0
1479877515.3,286047104.2,N,0.0,0.0
1479877535.1,286047104.4,N,0.0,0.0
1479877555.9,286047103.9,N,0.0,0.0
1479877575.7,286047104.1,N,0.0,0.0
1479877595.6,286047102.3,N,0.0,0.0
1479877615.4,286047103.3,N,0.0,0.0
1479877635.2,286047100.6,N,0.0,0.0
1479877655.1,286047100.9,N,0.0,0.0
1479877656.0,286047100.9,N,0.0,0.0
1479877675.8,286047100.8,N,0.0,0.0
1479877695.7,286047101.5,N,0.0,0.0
1479877715.5,286047102.0,N,0.0,0.0
1479877735.3,286047102.0,N,0.0,0.0
1479877755.2,286047102.0,N,0.0,0.0
1479877775.0,286047099.3,N,0.0,0.0
1479877775.9,286047099.3,N,0.0,0.0
1479877795.7,286047100.0,N,0.0,0.0
1479877815.6,286047097.6,N,0.0,0.0
1479877835.4,286047098.0,N,0.0,0.0
1479877855.3,286047098.4,N,0.0,0.0
1479877875.1,286047098.7,N,0.0,0.0
1479877895.8,286047098.7,N,0.0,0.0
1479877915.7,286047098.3,N,0.0,0.0
1479877935.5,286047098.3,N,0.0,0.0
1479877955.4,286047098.7,N,0.0,0.0
1479877975.2,286047095.7,N,0.0,0.0
1479877995.0,286047096.0,N,0.0,0.0
1479877995.9,286047096.0,N,0.0,0.0
1479878015.8,286047096.4,N,0.0,0.0
1479878035.6,286047097.0,N,0.0,0.0
1479878055.4,286047097.0,N,0.0,0.0
1479878075.3,286047094.7,N,0.0,0.0
1479878095.1,286047094.4,N,0.0,0.0
1479878115.9,286047095.3,N,0.0,0.0
1479878135.7,286047094.7,N,0.0,0.0
1479878155.5,286047095.0,N,0.0,0.0
1479878175.4,286047095.0,N,0.0,0.0
1479878195.2,286047095.5,N,0.0,0.0
1479878215.0,286047093.0,N,0.0,0.0
1479878215.9,286047093.0,N,0.0,0.0
1479878235.8,286047092.9,N,0.0,0.0
1479878255.6,286047093.7,N,0.0,0.0
1479878275.5,286047090.9,N,0.0,0.0
1479878295.3,286047091.0,N,0.0,0.0
1479878315.1,286047091.2,N,0.0,0.0
1479878335.9,286047091.4,N,0.0,0.0
1479878355.7,286047091.7,N,0.0,0.0
1479878375.6,286047091.2,N,0.0,0.0
1479878395.4,286047091.6,N,0.0,0.0
1479878415.2,286047089.5,N,0.0,0.0
1479878435.1,286047090.1,N,0.0,0.0
1479878436.0,286047090.1,N,0.0,0.0
1479878455.8,286047090.6,N,0.0,0.0
1479878475.6,286047090.2,N,0.0,0.0
1479878495.5,286047090.6,N,0.0,0.0
1479878515.3,286047089.9,N,0.0,0.0
1479878535.2,286047090.4,N,0.0,0.0
1479878555.9,286047088.2,N,0.0,0.0
1479878575.7,286047088.9,N,0.0,0.0
1479878595.6,286047088.8,N,0.0,0.0
1479878615.4,286047089.2,N,0.0,0.0
1479878635.2,286047086.1,N,0.0,0.0
1479878655.1,286047086.2,N,0.0,0.0
1479878656.0,286047086.2,N,0.0,0.0
1479878675.8,286047089.2,N,0.0,0.0
1479878695.7,286047086.2,N,0.0,0.0
1479878715.5,286047086.3,N,0.0,0.0
1479878735.3,286047087.1,N,0.0,0.0
1479878755.2,286047087.2,N,0.0,0.0
1479878775.0,286047084.8,N,0.0,0.0
1479878775.9,286047084.8,N,0.0,0.0
1479878795.8,286047085.1,N,0.0,0.0
1479878815.6,286047085.7,N,0.0,0.0
1479878835.4,286047083.0,N,0.0,0.0
1479878855.3,286047083.8,N,0.0,0.0
1479878875.1,286047083.6,N,0.0,0.0
1479878876.0,286047083.6,N,0.0,0.0
1479878895.8,286047084.2,N,0.0,0.0
1479878915.7,286047081.7,N,0.0,0.0
1479878935.5,286047082.0,N,0.0,0.0
1479878955.4,286047081.5,N,0.0,0.0
1479878975.2,286047082.5,N,0.0,0.0
1479878995.0,286047082.2,N,0.0,0.0
1479878995.9,286047082.2,N,0.0,0.0
1479879015.8,286047082.1,N,0.0,0.0
1479879035.6,286047082.2,N,0.0,0.0
1479879055.4,286047079.7,N,0.0,0.0
1479879075.3,286047080.0,N,0.0,0.0
1479879095.1,286047080.3,N,0.0,0.0
1479879115.9,286047079.9,N,0.0,0.0
1479879135.7,286047082.7,N,0.0,0.0
1479879155.5,286047082.8,N,0.0,0.0
1479879175.4,286047080.4,N,0.0,0.0
1479879195.2,286047081.0,N,0.0,0.0
1479879215.0,286047078.3,N,0.0,0.0
1479879215.9,286047078.3,N,0.0,0.0
1479879235.8,286047078.3,N,0.0,0.0
1479879255.6,286047078.1,N,0.0,0.0
1479879275.5,286047078.1,N,0.0,0.0
1479879295.3,286047078.1,N,0.0,0.0
1479879315.1,286047080.8,N,0.0,0.0
1479879335.9,286047078.5,N,0.0,0.0
1479879355.7,286047078.7,N,0.0,0.0
1479879375.5,286047079.0,N,0.0,0.0
1479879395.4,286047079.0,N,0.0,0.0
1479879415.2,286047078.9,N,0.0,0.0
1479879435.1,286047078.9,N,0.0,0.0
1479879436.0,286047078.9,N,0.0,0.0
1479879455.8,286047079.3,N,0.0,0.0
1479879475.6,286047079.5,N,0.0,0.0
1479879495.5,286047077.1,N,0.0,0.0
1479879515.3,286047077.4,N,0.0,0.0
1479879535.2,286047077.3,N,0.0,0.0
1479879555.9,286047077.7,N,0.0,0.0
1479879575.7,286047075.3,N,0.0,0.0
1479879595.6,286047074.9,N,0.0,0.0
1479879615.4,286047075.3,N,0.0,0.0
1479879635.2,286047074.9,N,0.0,0.0
1479879655.1,286047076.1,N,0.0,0.0
1479879656.0,286047076.1,N,0.0,0.0
1479879675.8,286047076.0,N,0.0,0.0
1479879695.7,286047076.1,N,0.0,0.0
1479879715.5,286047073.8,N,0.0,0.0
1479879735.3,286047073.7,N,0.0,0.0
1479879755.2,286047074.2,N,0.0,0.0
1479879775.0,286047074.7,N,0.0,0.0
1479879775.9,286047074.7,N,0.0,0.0
1479879795.8,286047071.8,N,0.0,0.0
1479879815.6,286047071.7,N,0.0,0.0
1479879835.4,286047072.3,N,0.0,0.0
1479879855.3,286047073.0,N,0.0,0.0
1479879875.1,286047072.5,N,0.0,0.0
1479879895.8,286047071.7,N,0.0,0.0
1479879915.7,286047074.4,N,0.0,0.0
1479879935.5,286047072.5,N,0.0,0.0
1479879955.4,286047070.6,N,0.0,0.0
1479879975.2,286047070.8,N,0.0,0.0
1479879995.0,286047071.0,N,0.0,0.0
1479879995.9,286047071.0,N,0.0,0.0
1479880015.8,286047071.1,N,0.0,0.0
1479880035.6,286047069.0,N,0.0,0.0
1479880055.4,286047068.9,N,0.0,0.0
1479880075.3,286047069.0,N,0.0,0.0
1479880095.1,286047068.8,N,0.0,0.0
1479880115.9,286047068.7,N,0.0,0.0
1479880135.7,286047068.9,N,0.0,0.0
1479880155.5,286047069.4,N,0.0,0.0
1479880175.4,286047069.7,N,0.0,0.0
1479880195.2,286047068.8,N,0.0,0.0
1479880215.0,286047069.1,N,0.0,0.0
1479880216.0,286047069.1,N,0.0,0.0
1479880235.8,286047069.3,N,0.0,0.0
1479880255.6,286047069.2,N,0.0,0.0
1479880275.5,286047068.8,N,0.0,0.0
1479880295.3,286047069.6,N,0.0,0.0
1479880315.1,286047070.0,N,0.0,0.0
1479880335.9,286047069.7,N,0.0,0.0
1479880355.7,286047066.9,N,0.0,0.0
1479880375.5,286047067.1,N,0.0,0.0
1479880395.4,286047067.8,N,0.0,0.0
1479880415.2,286047068.2,N,0.0,0.0
1479880435.1,286047065.7,N,0.0,0.0
1479880436.0,286047065.7,N,0.0,0.0
1479880455.8,286047065.5,N,0.0,0.0
1479880475.6,286047066.4,N,0.0,0.0
1479880495.5,286047066.6,N,0.0,0.0
1479880515.3,286047066.3,N,0.0,0.0
1479880535.2,286047066.4,N,0.0,0.0
1479880555.9,286047063.7,N,0.0,0.0
1479880575.7,286047066.7,N,0.0,0.0
1479880595.6,286047064.1,N,0.0,0.0
1479880615.4,286047066.4,N,0.0,0.0
1479880635.2,286047063.7,N,0.0,0.0
1479880655.1,286047064.0,N,0.0,0.0
1479880656.0,286047064.0,N,0.0,0.0
1479880675.8,286047063.8,N,0.0,0.0
1479880695.7,286047064.1,N,0.0,0.0
1479880715.5,286047064.1,N,0.0,0.0
1479880735.3,286047066.2,N,0.0,0.0
1479880755.2,286047066.4,N,0.0,0.0
1479880775.0,286047064.6,N,0.0,0.0
1479880775.9,286047064.6,N,0.0,0.0
1479880795.8,286047064.7,N,0.0,0.0
